FW3182 Weather Reports


Display with metric or nautical units.
time (UTC)temp
F
wind
direction
speed
MPH
gust
MPH
rain 1hr
in
rain 24hr
in
rain mn
in
humidity
%
barometer
mb
20260504234204 77 169 3.0 12.0 0.00 0.00 0.00 53 1002.9
20260504233704 77 170 6.0 10.0 0.00 0.00 0.00 52 1003.0
20260504233203 78 191 5.0 12.0 0.00 0.00 0.00 52 1003.0
20260504232704 78 217 5.0 14.0 0.00 0.00 0.00 51 1003.1
20260504232204 78 154 5.0 16.0 0.00 0.00 0.00 50 1003.0
20260504231704 78 160 5.0 12.0 0.00 0.00 0.00 50 1003.1
20260504231204 79 153 6.0 17.0 0.00 0.00 0.00 49 1003.0
20260504230703 79 177 3.0 13.0 0.00 0.00 0.00 50 1003.2
20260504230204 79 189 5.0 12.0 0.00 0.00 0.00 49 1003.2
20260504225703 79 175 5.0 15.0 0.00 0.00 0.00 48 1003.3
20260504224703 80 124 3.0 10.0 0.00 0.00 0.00 48 1003.2
20260504224204 79 180 5.0 12.0 0.00 0.00 0.00 47 1003.2
20260504223704 80 181 7.0 13.0 0.00 0.00 0.00 46 1003.3
20260504223204 80 197 5.0 12.0 0.00 0.00 0.00 46 1003.3
20260504222703 80 237 6.0 12.0 0.00 0.00 0.00 46 1003.4
20260504222204 80 210 5.0 12.0 0.00 0.00 0.00 46 1003.3
20260504221703 80 190 5.0 15.0 0.00 0.00 0.00 46 1003.4
20260504221204 81 198 6.0 14.0 0.00 0.00 0.00 45 1003.3
20260504220203 81 226 3.0 9.0 0.00 0.00 0.00 46 1003.3
20260504215703 80 215 5.0 14.0 0.00 0.00 0.00 46 1003.4
20260504214704 80 203 7.0 20.0 0.00 0.00 0.00 46 1003.4
20260504214203 80 183 5.0 14.0 0.00 0.00 0.00 46 1003.4
20260504213704 80 205 4.0 13.0 0.00 0.00 0.00 46 1003.5
20260504213204 80 200 9.0 18.0 0.00 0.00 0.00 46 1003.6
20260504212703 80 234 3.0 12.0 0.00 0.00 0.00 48 1003.6
20260504211703 80 236 7.0 15.0 0.00 0.00 0.00 47 1003.7
20260504211204 81 209 8.0 18.0 0.00 0.00 0.00 46 1003.8
20260504210704 81 209 5.0 13.0 0.00 0.00 0.00 47 1003.8
20260504210204 81 249 4.0 15.0 0.00 0.00 0.00 47 1003.7
20260504205704 80 225 5.0 12.0 0.00 0.00 0.00 48 1003.9
20260504205204 80 219 7.0 22.0 0.00 0.00 0.00 47 1004.0
20260504204704 80 203 10.0 20.0 0.00 0.00 0.00 47 1004.0
20260504203704 80 217 6.0 13.0 0.00 0.00 0.00 46 1004.2
20260504202204 80 213 9.0 20.0 0.00 0.00 0.00 46 1004.4
20260504201204 80 190 6.0 18.0 0.00 0.00 0.00 48 1004.4
20260504200703 80 193 5.0 14.0 0.00 0.00 0.00 48 1004.3
20260504195704 79 240 7.0 15.0 0.00 0.00 0.00 47 1004.5
20260504195204 79 220 9.0 26.0 0.00 0.00 0.00 47 1004.5
20260504194704 79 243 6.0 17.0 0.00 0.00 0.00 48 1004.6
20260504194204 79 241 5.0 15.0 0.00 0.00 0.00 47 1004.8
20260504193703 79 175 11.0 22.0 0.00 0.00 0.00 47 1004.8
20260504193203 80 213 9.0 18.0 0.00 0.00 0.00 47 1004.8
20260504192704 79 214 3.0 9.0 0.00 0.00 0.00 49 1004.8
20260504192204 79 255 6.0 14.0 0.00 0.00 0.00 49 1004.8
20260504191703 79 173 7.0 16.0 0.00 0.00 0.00 50 1004.9
20260504191204 78 202 12.0 21.0 0.00 0.00 0.00 48 1005.0
20260504190704 78 190 9.0 20.0 0.00 0.00 0.00 49 1005.1
20260504185703 78 254 11.0 24.0 0.00 0.00 0.00 49 1005.1
20260504185204 78 183 8.0 20.0 0.00 0.00 0.00 50 1005.1
20260504184703 78 222 6.0 23.0 0.00 0.00 0.00 51 1005.2
20260504184204 79 212 8.0 23.0 0.00 0.00 0.00 50 1005.2
20260504183204 79 212 5.0 10.0 0.00 0.00 0.00 51 1005.2
20260504182703 79 199 9.0 25.0 0.00 0.00 0.00 50 1005.4
20260504182203 78 219 6.0 17.0 0.00 0.00 0.00 51 1005.4
20260504181704 78 185 9.0 24.0 0.00 0.00 0.00 50 1005.4
20260504181204 78 193 9.0 32.0 0.00 0.00 0.00 49 1005.4
20260504180704 78 205 7.0 14.0 0.00 0.00 0.00 51 1005.4
20260504180203 78 222 5.0 12.0 0.00 0.00 0.00 50 1005.4
20260504175704 78 190 7.0 14.0 0.00 0.00 0.00 49 1005.5
20260504174703 78 196 7.0 15.0 0.00 0.00 0.00 50 1005.5
20260504174204 77 212 6.0 16.0 0.00 0.00 0.00 51 1005.6
20260504173704 77 210 9.0 20.0 0.00 0.00 0.00 50 1005.6
20260504172704 77 186 7.0 21.0 0.00 0.00 0.00 50 1005.6
20260504172204 77 152 7.0 18.0 0.00 0.00 0.00 50 1005.6
20260504171703 77 210 6.0 16.0 0.00 0.00 0.00 51 1005.6
20260504171204 77 205 5.0 20.0 0.00 0.00 0.00 51 1005.7
20260504170703 77 213 7.0 17.0 0.00 0.00 0.00 51 1005.8
20260504170204 77 186 9.0 15.0 0.00 0.00 0.00 50 1005.8
20260504160204 74 255 7.0 20.0 0.00 0.00 0.00 52 1006.5
20260504150703 71 221 9.0 17.0 0.00 0.00 0.00 54 1006.9
20260504150204 71 225 10.0 20.0 0.00 0.00 0.00 55 1006.9
20260504141203 68 234 4.0 20.0 0.00 0.00 0.00 60 1007.5
20260504140704 68 248 4.0 9.0 0.00 0.00 0.00 61 1007.6
20260504130704 64 170 3.0 10.0 0.00 0.00 0.00 65 1008.1
20260504130204 64 193 5.0 9.0 0.00 0.00 0.00 65 1008.2
20260504120203 61 200 3.0 8.0 0.00 0.00 0.00 67 1008.2
20260504110703 61 194 4.0 8.0 0.00 0.00 0.00 66 1008.1
20260504110203 61 203 3.0 12.0 0.00 0.00 0.00 66 1008.2
20260504100203 63 216 3.0 10.0 0.00 0.00 0.00 64 1008.5
20260504081703 63 200 5.0 8.0 0.00 0.00 0.00 62 1008.7
20260504080703 64 208 3.0 12.0 0.00 0.00 0.00 61 1008.8
20260504080204 64 218 5.0 12.0 0.00 0.00 0.00 61 1008.9
20260504070204 65 187 3.0 8.0 0.00 0.00 0.00 60 1009.6
20260504060204 66 200 6.0 12.0 0.00 0.00 0.00 58 1010.3
20260504050703 66 190 3.0 6.0 0.00 0.00 0.00 57 1010.5
20260504050204 66 188 3.0 9.0 0.00 0.00 0.00 57 1010.6
20260504045704 66 196 3.0 7.0 0.00 0.00 0.00 57 1010.5
20260504045204 66 197 3.0 9.0 0.00 0.00 0.00 57 1010.5
20260504044703 66 193 4.0 8.0 0.00 0.00 0.00 58 1010.5
20260504044204 66 175 5.0 10.0 0.00 0.00 0.00 58 1010.6
20260504043704 66 185 6.0 12.0 0.00 0.00 0.00 58 1010.6
20260504043203 66 184 3.0 9.0 0.00 0.00 0.00 58 1010.7
20260504042704 66 193 4.0 9.0 0.00 0.00 0.00 59 1010.6
20260504042203 66 175 3.0 8.0 0.00 0.00 0.00 60 1010.7
20260504041703 66 192 3.0 10.0 0.00 0.00 0.00 61 1010.8
20260504041204 65 198 3.0 10.0 0.00 0.00 0.00 61 1010.9
20260504040703 65 181 2.0 5.0 0.00 0.00 0.00 62 1011.0
20260504040204 65 183 1.0 5.0 0.00 0.00 0.00 62 1010.9
20260504035704 65 158 1.0 3.0 0.00 0.00 0.00 63 1011.0
20260504035203 65 164 1.0 3.0 0.00 0.00 0.00 63 1011.0
20260504034204 65 145 1.0 2.0 0.00 0.00 0.00 63 1011.0
20260504033704 65 139 0.0 1.0 0.00 0.00 0.00 62 1011.1
20260504033204 66 172 0.0 1.0 0.00 0.00 0.00 62 1011.1
20260504032703 66 143 0.0 2.0 0.00 0.00 0.00 61 1011.1
20260504032204 66 164 0.0 2.0 0.00 0.00 0.00 61 1011.1
20260504031703 66 132 0.0 3.0 0.00 0.00 0.00 60 1011.1
20260504031203 66 155 1.0 2.0 0.00 0.00 0.00 60 1011.2
20260504030704 67 174 0.0 2.0 0.00 0.00 0.00 59 1011.2
20260504030203 67 146 1.0 3.0 0.00 0.00 0.00 59 1011.2
20260504025704 67 147 1.0 3.0 0.00 0.00 0.00 58 1011.2
20260504025203 67 143 1.0 3.0 0.00 0.00 0.00 58 1011.2
20260504024704 67 140 0.0 2.0 0.00 0.00 0.00 58 1011.2
20260504024204 67 132 1.0 3.0 0.00 0.00 0.00 57 1011.2
20260504023703 68 155 1.0 2.0 0.00 0.00 0.00 57 1011.0
20260504023203 68 135 1.0 2.0 0.00 0.00 0.00 57 1011.1
20260504022704 68 146 0.0 1.0 0.00 0.00 0.00 56 1011.1
20260504021704 68 186 1.0 2.0 0.00 0.00 0.00 55 1011.1
20260504020703 69 136 0.0 2.0 0.00 0.00 0.00 54 1011.1
20260504020204 69 126 0.0 3.0 0.00 0.00 0.00 54 1011.1
20260504015704 69 154 1.0 2.0 0.00 0.00 0.00 53 1011.1
20260504014704 69 162 0.0 3.0 0.00 0.00 0.00 52 1010.9
20260504014204 70 183 0.0 2.0 0.00 0.00 0.00 52 1010.9
20260504013703 70 179 1.0 3.0 0.00 0.00 0.00 51 1010.8
20260504012203 71 155 0.0 1.0 0.00 0.00 0.00 50 1010.8
20260504011204 72 168 0.0 3.0 0.00 0.00 0.00 48 1010.9
20260504010703 72 204 1.0 3.0 0.00 0.00 0.00 48 1010.8
20260504010204 73 176 1.0 5.0 0.00 0.00 0.00 47 1010.8
20260504005704 73 183 1.0 5.0 0.00 0.00 0.00 47 1010.8
20260504005204 73 187 2.0 5.0 0.00 0.00 0.00 46 1010.8
20260504004204 74 171 2.0 6.0 0.00 0.00 0.00 45 1011.0
20260504003703 75 192 1.0 6.0 0.00 0.00 0.00 44 1010.8
20260504003203 75 187 2.0 6.0 0.00 0.00 0.00 44 1010.8
20260504002704 76 194 2.0 6.0 0.00 0.00 0.00 43 1010.9
20260504002204 76 188 1.0 7.0 0.00 0.00 0.00 43 1011.0
20260504001704 77 196 2.0 6.0 0.00 0.00 0.00 41 1010.9
20260504001204 77 187 2.0 8.0 0.00 0.00 0.00 41 1010.9
20260504000704 78 193 2.0 8.0 0.00 0.00 0.00 41 1010.9
20260504000204 78 165 3.0 9.0 0.00 0.00 0.00 41 1011.0
20260503235703 77 227 3.0 9.0 0.00 0.00 0.00 41 1011.0
20260503235203 77 188 3.0 7.0 0.00 0.00 0.00 41 1011.1